Regional Weather Roundup
Issued by NWS Northern Indiana

Home | Current Version | Previous Version | Text Only | Print | Product List | Glossary Off
Versions: 1 2 3 4 5 6 7 8 9 10 11 12 13 14 15 16 17 18 19 20 21 22 23 24 25 26 27 28 29 30 31 32 33 34 35 36 37 38 39 40 41 42 43 44 45 46 47 48 49 50

779
ASUS43 KIWX 230710
RWRIWX

KIWX WEATHER ROUNDUP
NATIONAL WEATHER SERVICE NORTHERN INDIANA
300 AM EDT FRI JUN 23 2017

NOTE: "FAIR" INDICATES FEW OR NO CLOUDS BELOW 12,000 FEET WITH NO
SIGNIFICANT WEATHER AND/OR OBSTRUCTIONS TO VISIBILITY.

* THESE STATIONS ARE NOT UNDER NWS QUALITY CONTROL. THEY ALSO MAY NOT
  REPORT WEATHER SUCH AS PRECIPITATION OR FOG.

INZ001>027-230800-
NORTHERN INDIANA

CITY           SKY/WX    TMP DP  RH WIND       PRES   REMARKS
GARY*          CLOUDY    76  71  85 S7        29.68F
VALPARAISO     CLOUDY    73  72  96 SW12      29.70F FOG
MICHIGAN CITY* CLOUDY    72  72 100 S9G16     29.68F
LAPORTE*       CLOUDY    71  70  96 S7        29.70F
KNOX*          CLOUDY    70  70 100 S9        29.71F
SOUTH BEND     CLOUDY    72  70  93 S14       29.69F
GOSHEN         LGT RAIN  71  68  90 S12       29.71F FOG
MONTICELLO*    CLOUDY    72  70  95 S8        29.72F FOG
LOGANSPORT*    CLOUDY    70  70 100 SW7       29.74F FOG
ROCHESTER*     CLOUDY    72  72 100 S8        29.73F FOG
WARSAW*        RAIN      70  68  94 S3        29.73F
AUBURN*        LGT RAIN  72  66  83 SW5       29.74F
FORT WAYNE     CLOUDY    72  68  87 S9        29.74F
HUNTINGTON*    LGT RAIN  71  69  95 S7        29.74F
PERU/GRISSOM   CLOUDY    72  72 100 SW9       29.72F
MARION*        CLOUDY    72  70  94 S10       29.76F

$$
INZ028>050-230800-
CENTRAL INDIANA

CITY           SKY/WX    TMP DP  RH WIND       PRES   REMARKS
LAFAYETTE      CLOUDY    73  71  93 VRB6      29.72F
KOKOMO*        CLOUDY    72  70  93 S8        29.75F
MUNCIE*        LGT RAIN  73  70  90 S7        29.77F
INDIANAPOLIS   CLOUDY    73  71  93 S9        29.76F

$$
MIZ043>046-050>051-056>058-064>065-071>073-077>080-230800-
SOUTHWEST LOWER MICHIGAN

CITY           SKY/WX    TMP DP  RH WIND       PRES   REMARKS
BATTLE CREEK   CLOUDY    74  68  81 SW15      29.70F
BENTON HARBOR  CLOUDY    74  68  81 SW12      29.67F
COLDWATER*     CLOUDY    71  69  92 SW7       29.72F
HILLSDALE*     CLOUDY    72  64  78 SW10G17   29.73F
HOLLAND        CLOUDY    75  68  78 SW18G29   29.67F
GRAND RAPIDS   CLOUDY    73  70  90 SW12      29.67F
KALAMAZOO      CLOUDY    74  66  76 S14G24    29.69F
STURGIS*       CLOUDY    70  69  96 S7        29.71F
THREE RIVERS*  CLOUDY    72  67  87 S12G18    29.70F

$$
OHZ001>008-015>018-024>025-230800-
NORTHWEST OHIO

CITY           SKY/WX    TMP DP  RH WIND       PRES   REMARKS
WAUSEON*       CLOUDY    73  68  83 S15       29.73F
DEFIANCE       LGT RAIN  70  67  90 S7        29.74F
FINDLAY        CLOUDY    74  65  73 S12       29.76F
TOLEDO EXPRESS CLOUDY    73  68  84 SW8       29.74F
TOLEDO METCALF CLOUDY    75  69  81 S10       29.76F
LIMA           CLOUDY    72  68  87 S10       29.78F

$$
AND FOR LAKE MICHIGAN COASTAL AND OPEN LAKE BUOY OBSERVATIONS

STATION/POSITION TEMP    WIND        PRES    VSBY  WAVE
                 AIR SEA DIR/SP/G                  HT/PER
                 (F)     (DEG/KT/KT) (MB)    (MI)  (FT/S)
CALUMET HARBOR           200/ 11/ 16 1004.4F
MICHIGAN CITY     73     180/ 15/ 20   N/A
BURNS HARBOR      73     190/ 17/ 23 1005.4F
SOUTH LAKE BUOY   66 61  210/ 19/ 23 1003.3          3/ 4
4 MI NW BRIDGMAN  72 69  210/ 10/ 16 1004.6          2/ 3
MICHIGAN CITY     72 68  210/ 16/ 17   N/A           2/ 3

$$
&&




USA.gov is the U.S. government's official web portal to all federal, state and local government web resources and services.